Current Version              Previous Version:    01  02  03  04  05  06  07  08  09  10  11  12  13  14  15  16  17  18  19  20  21  22  23  24  25  26  27  28  29  30  
   31  32  33  34  35  36  37  38  39  40  41  42  43  44  45  46  47  48  49  50  51  52  53  54  55  56  57  58  59  60  

[Printable]
156
ASUS44 KLUB 230601
RWRTX
WEST TEXAS WEATHER ROUNDUP
NATIONAL WEATHER SERVICE LUBBOCK TX
100 AM CDT THU OCT 23 2014

NOTE: "FAIR" INDICATES FEW OR NO CLOUDS BELOW 12,000 FEET WITH NO
SIGNIFICANT WEATHER AND/OR OBSTRUCTIONS TO VISIBILITY.

TXZ004-006>008-010-012-014-016-OKZ002-230700-
TEXAS PANHANDLE/OKLAHOMA PANHANDLE

CITY           SKY/WX    TMP DP  RH WIND       PRES   REMARKS
AMARILLO       CLOUDY    61  59  93 S21       30.12F
CANADIAN       CLOUDY    64  61  90 SW13G23   30.08S
DALHART        CLEAR     58  55  90 S10       30.11F FOG
DUMAS          MOCLDY    59  57  94 S9        30.11S FOG
GUYMON         CLOUDY    62  59  90 S8        30.07S
HEREFORD       CLOUDY    63  60  91 S12G18    30.14S
PAMPA          CLOUDY    61  58  91 S16       30.11S
PERRYTON       CLEAR     61  57  88 S13       30.09S
$$

TXZ026-029-035-045-048-230700-
SOUTHERN PANHANDLE/SOUTH PLAINS/ROLLING PLAINS

CITY           SKY/WX    TMP DP  RH WIND       PRES   REMARKS
CHILDRESS      PTCLDY    60  58  92 S5        30.12F FOG
SEMINOLE       CLEAR     54  53  96 S3        30.15S
LUBBOCK        MOCLDY    58  56  93 S10       30.14R FOG
PLAINVIEW      MOCLDY    57  56  96 S5        30.13S FOG
SNYDER         PTCLDY    58  55  92 S3        30.14S
$$

TXZ052-054-060>062-072-078-127-140-154-169-230700-
PERMIAN BASIN/CONCHO VALLEY/BIG COUNTRY/EDWARDS PLATEAU

CITY           SKY/WX    TMP DP  RH WIND       PRES   REMARKS
ABILENE        CLEAR     60  55  83 S3        30.11S
BIG SPRING     CLEAR     59  54  84 S6        30.16S
JUNCTION       CLOUDY    62  61  96 W3        30.13S FOG
MIDLAND        PTCLDY    59  53  80 S6        30.13F
ODESSA         MOCLDY    60  55  83 S9        30.13F
SAN ANGELO     PTCLDY    59  56  89 CALM      30.12F
SONORA         PTCLDY    59  59 100 CALM      30.18F
SWEETWATER     CLEAR     60  55  85 SW6       30.16S
WINK           CLEAR     60  57  89 E8        30.10S
$$

TXZ055-058-074-075-080-082-230700-
FAR WEST/SOUTHWEST MOUNTAINS/TRANS PECOS

CITY           SKY/WX    TMP DP  RH WIND       PRES   REMARKS
ALPINE         CLEAR     59  57  92 SW8       30.24S
DRYDEN           N/A     62  59  90 SE3       30.12
EL PASO        CLEAR     63  55  75 CALM      30.13S
FORT STOCKTON  CLEAR     61  58  90 S12       30.12F
MARFA          MOCLDY    57  55  94 CALM      30.23F
PECOS          CLEAR     60  58  92 E6        30.09F
PRESIDIO       FAIR      67  60  80 NE12      30.12S
$$

TXZ014-016-019-021>030-083-230700
TEXAS TECH WEST TEXAS MESONET/TEXAS PANHANDLE/NORTHERN SOUTH PLAINS

CITY           SKY/WX    TMP DP  RH WIND       PRES   REMARKS
ABERNATHY 5ENE   N/A     58  56  95 S10       30.15F
AMARILLO 9NNE    N/A     62  58  90 S14       30.10F
AMARILLO 7SSE    N/A     61  59  92 S12       30.14F
AMHERST 1NE      N/A     59  58  96 S8        30.15S
BOOTLEG 11WNW    N/A     57  55  95 S14       30.15F
CANADIAN 6E      N/A     62  60  92 S5        30.09S
CAPROCK CYN SP   N/A     60  58  95 S8        30.13S
CHILDRESS 2NNE   N/A     60  58  96 S6        30.11F
CLARENDON 2WSW   N/A     61  58  90 S12       30.12S
CLAUDE 12SW      N/A     60  59  94 S8        30.13F
DIMMITT 2NE      N/A     60  58  92 S10       30.14S
FLOYDADA 2NNE    N/A     57  56  98 S10       30.14S
FRIONA 2NE       N/A     60  57  92 S15       30.14S
GOODLETT 3W      N/A     60  58  91 S3        30.10S
HART 3N          N/A     60  57  90 S13       30.15S
HEREFORD 2NW     N/A     61  56  85 S13       30.14S
MCLEAN 1E        N/A     59  58  97 S12       30.10F
MEMPHIS 1NE      N/A     62  60  96 SE6       30.11F
MULESHOE 2SSW    N/A     60  58  92 S14       30.14S
OLTON 6S         N/A     58  56  91 S10       30.14S
PALO DURO SP     N/A     62  58  88 S7        30.15S
PAMPA 2E         N/A     60  58  93 S12       30.11F
PLAINVIEW 1S     N/A     58  57  97 S6        30.14S
SILVERTON 7ESE   N/A     59  57  92 S7        30.14S
TULIA 2ENE       N/A     59  58  95 S10       30.14S
TURKEY 2WSW      N/A     59  57  94 S5        30.11F
UMBARGER 3NNE    N/A     61  59  92 S14       30.14S
$$

TXZ033>036-039>041-045>048-230700
TEXAS TECH WEST TEXAS MESONET/SOUTH PLAINS

CITY           SKY/WX    TMP DP  RH WIND       PRES   REMARKS
AIKEN 3WSW       N/A     57  57  97 S9        30.15S
ANDREWS 2NE      N/A     56  51  84 S6        30.14S
ANTON 6SSW       N/A     57  56  96 S7        30.14S
BROWNFIELD 2S    N/A     55  53  94 S7        30.14R
DENVR CTY 7WNW   N/A     54  53  94 S8        30.14F
GAIL 2ESE        N/A     58  55  92 SW5       30.13S
LAMESA 2SE       N/A     55  53  90 S6        30.14F
LEVELLAND 4S     N/A     56  55  93 S7        30.14S
LUBBOCK 3WNW     N/A     58  56  92 S7        30.14S
MORTON 1ENE      N/A     57  56  97 S7        30.15R
ODONNELL 1N      N/A     56  52  87 S8        30.14F
PLAINS 3N        N/A     55  53  92 S6        30.15S
RALLS 1SE        N/A     57  56  97 SE5       30.15S
REESE CENTER     N/A     56  55  96 S7        30.14S
SEMINOLE 2NNE    N/A     54  52  91 S3        30.14S
SLATON 2NE       N/A     55  54  97 SE5       30.14S
SNYDER 3E        N/A     57  55  95 S5        30.13S
SUNDOWN 8SW      N/A     55  53  95 S7        30.14S
TAHOKA 3NNE      N/A     56  54  93 S8        30.13F
WOLFFORTH 6SSW   N/A     56  56  98 S5        30.14S
$$

TXZ031-032-036>038-042>044-230700-
TEXAS TECH WEST TEXAS MESONET/ROLLING PLAINS

CITY           SKY/WX    TMP DP  RH WIND       PRES   REMARKS
ASPERMONT 3NE    N/A     61  60  96 SE3       30.11S
FLUVANNA 3WNW    N/A     58  55  90 S6        30.13S
GRAHAM 5SSW      N/A     58  53  86 S8        30.13F
GUTHRIE 10WSW    N/A     60  58  93 S2        30.11S
HASKELL 1NW      N/A     63  60  90 N2        30.10F
JAYTON 1SSE      N/A     59  56  92 S5        30.12S
KNOX CITY 3NW    N/A     62  58  87 NW1       30.10F
LK A HENRY 1NW   N/A     59  57  92 S3        30.13S
NORTHFIELD 1S    N/A     59  58  98 SE5       30.11F
ODELL 4ENE       N/A     62  59  91 SE5       30.10S
PADUCAH 10SW     N/A     61  59  96 S5        30.11F
POST 1NE         N/A     57  56  97 S3        30.13F
RRING SPRGS 3N   N/A     56  55  98 SW7       30.12F
SEYMOUR 3NW      N/A     63  60  89 NE2       30.10S
SPUR 1W          N/A     55  54  94 SW2       30.12S
WEINERT 2NNE     N/A     61  60  96 E2        30.10F
WHITE RVR 6NE    N/A     57  56  97 E3        30.13S
$$

TXZ052-054-060>062-072-078-127-140-154-169-230700-
TEXAS TECH WEST TEXAS MESONET/PERMIAN BASIN/
CONCHO VALLEY/BIG COUNTRY/EDWARDS PLATEAU

CITY           SKY/WX    TMP DP  RH WIND       PRES   REMARKS
COYANOSA 2N      N/A     61  59  93 SE8       30.11S
JUNCTION 1SSW    N/A     62  61  98 CALM      30.13S
MERTZON 3NNE     N/A     56  55  95 SW2       30.15R
SAN ANGELO 7NW   N/A     58  54  87 SE3       30.11F
STRLNG CT 4WSW   N/A     59  54  83 S2        30.14F
ST LAWRNCE 5SW   N/A     55  50  86 S7        30.13F
SWEETWATR 11SW   N/A     56  54  93 SE5       30.14S
WALL 1E          N/A     58  53  82 CALM      30.13F
$$

TXZ055-058-074-075-080-082-230700-
TEXAS TECH WEST TEXAS MESONET/FAR WEST/SOUTHWEST MOUNTAINS/TRANS PECOS

CITY           SKY/WX    TMP DP  RH WIND       PRES   REMARKS
PRSMN GAP BBNP   N/A     63  60  91 NE6       30.14F
GUADLPE MTN NP   N/A     54  49  86 W6        30.24S
$$